EW3707 Weather Reports


Display with metric or nautical units.
time (UTC)temp
F
wind
direction
speed
MPH
gust
MPH
rain 1hr
in
rain 24hr
in
rain mn
in
humidity
%
barometer
mb
20260904062016 75 0.0 0.0 0.00 0.42 0.00 12 1010.6
20260904061016 75 0.0 0.0 0.00 0.42 0.00 21 1010.6
20260904060016 75 0.0 0.0 0.00 0.42 0.00 29 1010.6
20260904055016 75 0.0 2.0 0.00 0.42 0.00 34 1010.6
20260904054016 75 113 2.0 6.0 0.00 0.42 0.00 39 1010.5
20260904053016 75 90 1.0 5.0 0.00 0.42 0.00 40 1010.6
20260904052016 75 90 1.0 4.0 0.00 0.42 0.00 43 1010.6
20260904051016 76 90 1.0 6.0 0.00 0.42 0.00 45 1010.7
20260904050016 76 90 2.0 5.0 0.00 0.42 0.42 47 1010.6
20260904045016 76 113 2.0 10.0 0.00 0.42 0.42 47 1010.7
20260904044016 76 90 2.0 7.0 0.00 0.42 0.42 46 1010.8
20260904043017 76 90 1.0 5.0 0.00 0.42 0.42 46 1010.9
20260904042036 76 90 2.0 6.0 0.00 0.42 0.42 45 1011.1
20260904041037 76 135 1.0 6.0 0.00 0.42 0.42 40 1011.2
20260904040017 76 90 1.0 4.0 0.00 0.42 0.42 37 1011.2
20260904035017 76 0.0 2.0 0.00 0.42 0.42 40 1011.3
20260904034037 76 113 2.0 5.0 0.00 0.42 0.42 41 1011.4
20260904033037 76 113 2.0 6.0 0.00 0.42 0.42 33 1011.3
20260904032016 76 90 1.0 4.0 0.00 0.42 0.42 26 1011.2
20260904031016 76 90 1.0 3.0 0.00 0.42 0.42 22 1011.2
20260904030056 76 90 2.0 4.0 0.00 0.42 0.42 21 1011.3
20260904025016 76 90 1.0 4.0 0.00 0.42 0.42 24 1011.3
20260904024016 76 113 1.0 4.0 0.00 0.42 0.42 33 1011.2
20260904023017 76 90 1.0 4.0 0.00 0.42 0.42 30 1011.1
20260904022036 76 113 2.0 6.0 0.00 0.42 0.42 27 1010.9
20260904021037 76 113 2.0 6.0 0.00 0.42 0.42 22 1010.9
20260904020017 76 90 3.0 6.0 0.00 0.42 0.42 21 1010.9
20260904015016 76 113 2.0 7.0 0.00 0.42 0.42 18 1010.9
20260904014016 76 113 2.0 7.0 0.00 0.42 0.42 18 1010.9
20260904013016 76 113 4.0 11.0 0.00 0.42 0.42 17 1010.7
20260904012017 76 113 1.0 5.0 0.00 0.42 0.42 19 1010.7
20260904011017 76 90 2.0 5.0 0.00 0.42 0.42 24 1010.5
20260904010036 76 113 2.0 7.0 0.00 0.42 0.42 20 1010.5
20260904005016 76 90 1.0 4.0 0.00 0.42 0.42 18 1010.4
20260904004016 77 113 1.0 5.0 0.00 0.42 0.42 15 1010.1
20260904003017 77 90 1.0 7.0 0.00 0.42 0.42 6 1010.1
20260904002016 77 113 1.0 6.0 0.00 0.42 0.42 1 1009.9
20260904001016 77 113 1.0 5.0 0.00 0.42 0.42 1 1009.9
20260904000017 77 113 1.0 6.0 0.05 0.42 0.42 1 1009.9
20260903235017 77 135 1.0 4.0 0.12 0.42 0.42 1 1010.0
20260903234016 77 113 2.0 8.0 0.13 0.42 0.42 1 1010.0
20260903233017 76 90 2.0 6.0 0.13 0.42 0.42 1 1010.2
20260903232016 77 0.0 2.0 0.13 0.42 0.42 1 1010.4
20260903231016 77 0.0 2.0 0.13 0.42 0.42 1 1010.7
20260903230017 77 0.0 1.0 0.08 0.37 0.37 18 1011.0
20260903225036 78 90 1.0 5.0 0.01 0.30 0.30 37 1010.8
20260903224017 78 135 1.0 6.0 0.00 0.29 0.29 42 1010.6
20260903223017 78 113 1.0 3.0 0.00 0.29 0.29 38 1010.7
20260903222017 77 90 1.0 5.0 0.00 0.29 0.29 37 1010.8
20260903221036 77 113 1.0 4.0 0.00 0.29 0.29 40 1010.7
20260903220037 77 113 1.0 5.0 0.00 0.29 0.29 48 1011.2
20260903215016 76 0.0 3.0 0.00 0.29 0.29 47 1011.2
20260903214016 76 90 3.0 11.0 0.00 0.29 0.29 58 1011.3
20260903213016 76 135 2.0 5.0 0.00 0.29 0.29 46 1011.3
20260903212017 75 113 2.0 8.0 0.00 0.29 0.29 30 1011.6
20260903211017 74 0.0 2.0 0.01 0.29 0.29 1 1011.7
20260903210016 72 90 1.0 3.0 0.05 0.29 0.29 1 1011.8
20260903205016 72 113 1.0 5.0 0.05 0.29 0.29 1 1011.4
20260903204016 72 113 1.0 3.0 0.05 0.29 0.29 1 1011.3
20260903203036 72 0.0 2.0 0.05 0.29 0.29 1 1011.4
20260903202056 72 113 2.0 7.0 0.05 0.29 0.29 1 1011.4
20260903201036 72 113 1.0 6.0 0.05 0.28 0.28 1 1011.3
20260903200016 72 90 1.0 4.0 0.04 0.24 0.24 1 1011.5
20260903195016 72 135 1.0 7.0 0.04 0.24 0.24 1 1011.6
20260903194016 72 113 2.0 7.0 0.05 0.24 0.24 1 1011.6
20260903193016 72 113 1.0 5.0 0.05 0.24 0.24 1 1011.5
20260903192017 72 0.0 2.0 0.05 0.24 0.24 1 1011.9
20260903191016 72 0.0 1.0 0.04 0.23 0.23 1 1012.0
20260903190016 72 0.0 0.0 0.01 0.20 0.20 1 1012.5
20260903185037 72 0.0 1.0 0.01 0.20 0.20 1 1012.3
20260903184016 72 113 1.0 7.0 0.00 0.19 0.19 1 1012.4
20260903183017 72 0.0 1.0 0.00 0.19 0.19 1 1012.2
20260903182016 72 0.0 2.0 0.01 0.19 0.19 1 1012.3
20260903181016 72 0.0 3.0 0.01 0.19 0.19 1 1012.5
20260903180016 72 68 1.0 4.0 0.01 0.19 0.19 1 1012.0
20260903175016 71 0.0 2.0 0.04 0.19 0.19 1 1012.0
20260903174016 71 113 1.0 2.0 0.04 0.19 0.19 1 1012.1
20260903173036 71 0.0 1.0 0.04 0.19 0.19 1 1011.9
20260903172017 72 0.0 2.0 0.03 0.18 0.18 1 1011.3
20260903171016 72 0.0 1.0 0.04 0.18 0.18 1 1012.1
20260903170016 71 0.0 1.0 0.05 0.18 0.18 1 1012.4
20260903165016 72 0.0 1.0 0.02 0.15 0.15 1 1012.5
20260903164017 72 0.0 1.0 0.02 0.15 0.15 2 1011.5
20260903163016 72 0.0 2.0 0.02 0.15 0.15 7 1011.0
20260903162056 72 90 1.0 3.0 0.02 0.15 0.15 22 1011.2
20260903161017 72 0.0 4.0 0.01 0.14 0.14 22 1011.9
20260903160016 73 0.0 1.0 0.00 0.13 0.13 33 1011.8
20260903155036 73 0.0 2.0 0.05 0.13 0.13 25 1012.0
20260903154016 73 0.0 1.0 0.06 0.13 0.13 1 1010.9
20260903153016 73 90 1.0 3.0 0.06 0.13 0.13 1 1010.8
20260903152017 71 0.0 2.0 0.06 0.13 0.13 1 1011.2
20260903151016 71 0.0 0.0 0.06 0.13 0.13 1 1011.2
20260903150016 71 113 1.0 4.0 0.06 0.13 0.13 1 1011.4
20260903145016 71 248 1.0 2.0 0.02 0.08 0.08 1 1011.9
20260903144017 71 248 1.0 3.0 0.01 0.07 0.07 1 1012.3
20260903143016 71 0.0 3.0 0.01 0.07 0.07 1 1012.2
20260903142016 71 0.0 1.0 0.02 0.07 0.07 1 1012.1
20260903141016 71 0.0 0.0 0.02 0.07 0.07 1 1013.2
20260903140017 71 0.0 0.0 0.03 0.07 0.07 1 1012.7
20260903135016 71 0.0 2.0 0.06 0.06 0.06 1 1012.4
20260903134016 71 0.0 3.0 0.06 0.06 0.06 1 1012.8
20260903133057 71 0.0 1.0 0.06 0.06 0.06 1 1013.1
20260903132016 71 0.0 1.0 0.05 0.05 0.05 1 1013.7
20260903131016 71 0.0 0.0 0.05 0.05 0.05 1 1013.4
20260903130017 72 0.0 0.0 0.04 0.04 0.04 1 1013.5
20260903125016 71 0.0 0.0 0.00 0.00 0.00 1 1013.5
20260903124016 71 0.0 0.0 0.00 0.00 0.00 1 1013.2
20260903123016 71 0.0 0.0 0.00 0.00 0.00 1 1012.9
20260903122016 71 0.0 0.0 0.00 0.00 0.00 1 1012.7
20260903121036 71 0.0 0.0 0.00 0.00 0.00 2 1012.5
20260903120016 71 0.0 0.0 0.00 0.00 0.00 5 1012.4
20260903115036 71 0.0 0.0 0.00 0.00 0.00 6 1012.0
20260903114016 71 0.0 0.0 0.00 0.00 0.00 4 1012.2
20260903113016 71 0.0 0.0 0.00 0.00 0.00 1 1012.2
20260903112016 71 0.0 0.0 0.00 0.00 0.00 1 1012.2
20260903111016 71 0.0 0.0 0.00 0.00 0.00 4 1012.3
20260903110016 71 0.0 0.0 0.00 0.00 0.00 7 1012.4
20260903105016 71 0.0 0.0 0.00 0.00 0.00 10 1012.4
20260903104036 71 0.0 1.0 0.00 0.00 0.00 11 1011.9
20260903103016 71 0.0 2.0 0.00 0.00 0.00 13 1011.6
20260903102016 71 0.0 0.0 0.00 0.00 0.00 17 1011.5
20260903101016 71 0.0 3.0 0.00 0.00 0.00 16 1011.5
20260903100016 71 0.0 3.0 0.00 0.00 0.00 14 1011.5
20260903095016 71 0.0 3.0 0.00 0.00 0.00 12 1011.6
20260903094016 71 0.0 3.0 0.00 0.00 0.00 9 1011.5
20260903093016 71 0.0 3.0 0.00 0.00 0.00 6 1011.4
20260903092016 71 0.0 0.0 0.00 0.02 0.00 5 1011.4
20260903091016 70 0.0 2.0 0.00 0.03 0.00 1 1011.4
20260903090036 70 0.0 0.0 0.00 0.05 0.00 1 1011.6
20260903085016 70 0.0 0.0 0.00 0.07 0.00 1 1011.5
20260903084016 71 0.0 0.0 0.00 0.08 0.00 1 1011.7
20260903083016 71 0.0 0.0 0.00 0.08 0.00 1 1011.4
20260903082016 71 0.0 0.0 0.00 0.10 0.00 5 1011.6
20260903081016 71 0.0 0.0 0.00 0.14 0.00 10 1011.5
20260903080016 71 0.0 0.0 0.00 0.18 0.00 15 1011.5
20260903075036 71 0.0 0.0 0.00 0.22 0.00 17 1011.6
20260903074036 71 0.0 0.0 0.00 0.23 0.00 18 1011.7
20260903073016 71 0.0 0.0 0.00 0.24 0.00 18 1011.6
20260903072016 71 0.0 0.0 0.00 0.26 0.00 20 1011.6
20260903071016 72 0.0 0.0 0.00 0.27 0.00 20 1011.7
20260903070036 72 0.0 0.0 0.00 0.28 0.00 25 1011.8
20260903065036 72 0.0 0.0 0.00 0.28 0.00 26 1011.9
20260903064016 72 0.0 1.0 0.00 0.28 0.00 23 1012.0
20260903063016 72 0.0 0.0 0.00 0.28 0.00 12 1012.1